Home   Weather   Cartagena   Past weeks

Flag for Colombia Past Weather in Cartagena, Colombia — Yesterday and Last 2 Weeks

Now
77 °F

Clear.


Feels Like: 78 °F
Forecast: 73 / 86 °F
Wind: 9 mph from North

Location: Cartagena / Rafael Nunez

Current Time: Jan 17, 2017 at 9:11:26 pm

Latest Report: Jan 17, 2017 at 8:00 pm


Visibility: 10 mi

Pressure: 29.86 "Hg

Humidity: 94%

Dew Point: 75 °F

Location of CartagenaLocation

Past Weather in Cartagena — Graph

°F

Cartagena Temperature Yesterday

Maximum temperature yesterday: 88 °F (at 2:00 pm)
Minimum temperature yesterday: 72 °F (at 6:00 am)
Average temperature yesterday: 79 °F

High & Low Weather Summary for the Past Weeks

 TemperatureHumidityPressure
High90 °F (Jan 6, 12:00 pm)100% (Jan 3, 1:00 am)29.92 "Hg (Jan 3, 1:00 am)
Low72 °F (Jan 16, 6:00 am)52% (Jan 10, 11:00 am)29.72 "Hg (Jan 3, 3:00 pm)
Average80 °F81%29.82 "Hg
* Reported Jan 2 8:00 pm — Jan 17 8:00 pm, Cartagena, Weather by CustomWeather, © 2017

Note: Actual official high and low records may vary slightly from our data, if they occured in-between our weather recording intervals... More about our weather records

Advertising

Cartagena Weather History for the Previous 24 Hours

Scroll right to see more
 ConditionsComfort  
Time TempWeatherWind HumidityBarometerVisibility
8:00 pm
Tue, Jan 17
77 °FClear.9 mph94%29.86 "Hg10 mi
7:00 pm79 °FClear.10 mph89%29.84 "Hg10 mi
6:00 pm81 °FClear.9 mph79%29.83 "Hg10 mi
5:00 pm82 °FPassing clouds.10 mph70%29.82 "HgN/A
4:00 pm84 °FPassing clouds.15 mph70%29.81 "HgN/A
3:00 pm82 °FPassing clouds.17 mph74%29.81 "HgN/A
2:00 pm86 °FPassing clouds.13 mph66%29.83 "HgN/A
1:00 pm84 °FPassing clouds.5 mph74%29.85 "HgN/A
12:00 pm88 °FPassing clouds.7 mph62%29.88 "HgN/A
11:00 am84 °FPassing clouds.2 mph70%29.89 "HgN/A
10:00 am86 °FSunny.2 mph59%29.90 "Hg10 mi
9:00 am81 °FSunny.2 mph74%29.89 "Hg10 mi
8:00 am77 °FSunny.2 mph89%29.87 "Hg10 mi
7:00 am73 °FSunny.3 mph100%29.85 "Hg10 mi
6:00 am72 °FClear.3 mph88%29.83 "Hg10 mi
5:00 am72 °FClear.3 mph88%29.82 "Hg10 mi
4:00 am73 °FClear.2 mph94%29.81 "Hg10 mi
3:00 am73 °FClear.3 mph94%29.81 "Hg10 mi
2:00 am75 °FClear.3 mph89%29.82 "Hg10 mi
1:00 am75 °FClear.3 mph83%29.84 "Hg10 mi
12:00 am75 °FClear.6 mph89%29.85 "Hg10 mi
11:00 pm
Mon, Jan 16
75 °FClear.3 mph89%29.86 "Hg10 mi
10:00 pm75 °FClear.7 mph89%29.86 "Hg10 mi
9:00 pm77 °FClear.5 mph83%29.86 "Hg10 mi
Weather by CustomWeather, © 2017

See weather overviewHow to use our weather pages